Weather History for KNPA - October, 2012

Change the Weather History Date:

Sunday, October 7, 2012

  Actual Average (KPNS) Record (KPNS)
Temperature  
Mean Temperature 71 °F 72 °F  
Max Temperature 80 °F 81 °F 93 °F (1951)
Min Temperature 60 °F 63 °F 45 °F (1964)
Degree Days  
Heating Degree Days 0 0  
Month to date heating degree days 0  
Since 1 July heating degree days 1  
Cooling Degree Days 6 8  
Month to date cooling degree days 60  
Year to date cooling degree days 2430  
Growing Degree Days 21 (Base 50)    
Moisture  
Dew Point 61 °F    
Average Humidity 82    
Maximum Humidity 100    
Minimum Humidity 58    
Precipitation  
Precipitation 0.00 in 0.17 in 4.63 in (1970)
Month to date precipitation 1.22  
Year to date precipitation 51.97  
Sea Level Pressure  
Sea Level Pressure 30.02 in    
Wind  
Wind Speed 8 mph (North)    
Max Wind Speed 16 mph    
Max Gust Speed 22 mph    
Visibility 10 miles    
Events      
T = Trace of Precipitation, MM = Missing Value Source: NWS Daily Summary

Daily Weather History Graph

Daily Weather History Graph

Search for Another Location

Airport or City:

Trip Planner

Search our weather history database for the weather conditions in past years. The results will help you decide how hot, cold, wet, or windy it might be!

Date:

Astronomy

Oct. 07, 2012 Rise Set
Actual Time 6:46 AM CDT 6:26 PM CDT
Civil Twilight 6:22 AM CDT 6:50 PM CDT
Nautical Twilight 5:54 AM CDT 7:18 PM CDT
Astronomical Twilight 5:26 AM CDT 7:46 PM CDT
Moon 11:53 PM CDT (10/7) 1:06 PM CDT (10/7)
Length of Visible Light 12h 28m
Length of Day
11h 40m
Waning Gibbous, 56% of the Moon is Illuminated
Oct 7
Waning Gibbous
Oct 8
Last Quarter
Oct 15
New
Oct 21
First Quarter
Oct 29
Full

Hourly Weather History & Observations

Time (CDT) Temp. Heat Index Dew Point Humidity Pressure Visibility Wind Dir Wind Speed Gust Speed Precip Events Conditions
12:56 AM 69.1 °F - 66.0 °F 90% 29.99 in 10.0 mi North 5.8 mph - N/A   Clear
1:56 AM 66.9 °F - 64.9 °F 93% 29.99 in 10.0 mi North 4.6 mph - N/A   Clear
2:56 AM 66.0 °F - 64.9 °F 96% 29.99 in 10.0 mi North 6.9 mph - N/A   Clear
3:56 AM 64.0 °F - 63.0 °F 96% 29.98 in 10.0 mi North 8.1 mph - N/A   Clear
4:30 AM 62.6 °F - 62.6 °F 100% 29.99 in 10.0 mi North 6.9 mph - N/A   Partly Cloudy
4:46 AM 62.6 °F - 62.6 °F 100% 29.98 in 10.0 mi North 8.1 mph - N/A   Mostly Cloudy
4:56 AM 63.0 °F - 62.1 °F 97% 29.99 in 9.0 mi North 6.9 mph - N/A   Mostly Cloudy
5:56 AM 62.1 °F - 62.1 °F 100% 30.01 in 8.0 mi North 9.2 mph - N/A   Overcast
6:56 AM 62.1 °F - 61.0 °F 96% 30.02 in 6.0 mi North 9.2 mph - N/A   Overcast
7:56 AM 62.1 °F - 61.0 °F 96% 30.04 in 6.0 mi North 9.2 mph - N/A   Overcast
8:56 AM 62.1 °F - 60.1 °F 93% 30.06 in 8.0 mi North 12.7 mph - N/A   Overcast
9:56 AM 66.0 °F - 60.1 °F 81% 30.07 in 10.0 mi North 12.7 mph - N/A   Mostly Cloudy
10:14 AM 66.2 °F - 60.8 °F 83% 30.07 in 10.0 mi North 13.8 mph - N/A   Mostly Cloudy
10:56 AM 66.9 °F - 60.1 °F 79% 30.06 in 10.0 mi North 16.1 mph 21.9 mph N/A   Mostly Cloudy
11:56 AM 71.1 °F - 62.1 °F 73% 30.06 in 10.0 mi North 11.5 mph - N/A   Partly Cloudy
12:56 PM 73.9 °F - 62.1 °F 66% 30.03 in 10.0 mi North 10.4 mph - N/A   Clear
1:56 PM 78.1 °F - 63.0 °F 60% 30.00 in 10.0 mi North 10.4 mph - N/A   Clear
2:56 PM 79.0 °F - 64.9 °F 62% 29.98 in 10.0 mi NNW 10.4 mph - N/A   Clear
3:56 PM 80.1 °F 81.7 °F 64.0 °F 58% 29.98 in 10.0 mi NNE 9.2 mph - N/A   Partly Cloudy
4:56 PM 77.0 °F - 64.0 °F 64% 29.97 in 10.0 mi North 10.4 mph - N/A   Scattered Clouds
5:56 PM 72.0 °F - 62.1 °F 71% 29.99 in 10.0 mi North 6.9 mph - N/A   Scattered Clouds
6:56 PM 69.1 °F - 61.0 °F 75% 30.02 in 10.0 mi NNW 8.1 mph - N/A   Mostly Cloudy
7:56 PM 66.9 °F - 60.1 °F 79% 30.04 in 10.0 mi North 6.9 mph - N/A   Mostly Cloudy
8:30 PM 66.2 °F - 57.2 °F 73% 30.05 in 10.0 mi North 9.2 mph - N/A   Mostly Cloudy
8:56 PM 64.9 °F - 57.9 °F 78% 30.06 in 10.0 mi North 9.2 mph - N/A   Clear
9:56 PM 63.0 °F - 55.9 °F 78% 30.07 in 10.0 mi North 11.5 mph - N/A   Clear
10:56 PM 62.1 °F - 55.0 °F 78% 30.07 in 10.0 mi North 9.2 mph - N/A   Clear
11:56 PM 60.1 °F - 54.0 °F 80% 30.06 in 10.0 mi North 8.1 mph - N/A   Clear